SDM9999 UUDD-UNNT

Flight info

Callsign SDM9999
Flight time N/A
Altitude 31000
Route OLMUN4N OLMUN T629 IPSIL T830 LAMGU N604 OGSIN P983 TINRI T448 RUBOR A300 ML R814 SZ W1 GOLIM GOLIM1A
Aircraft T154/M-SDGRWY/S

Departure

Time 2026-05-01 10:53
Airport Domodedovo International Airport (UUDD)

Arrival

Time N/A
Airport Novosibirsk Tolmachevo Airport (UNNT)
Time Latitude Longitude Altitude Speed Heading
2026-05-01 10:42 55.41085 37.89991 595 ft 1 kts 328°
2026-05-01 10:43 55.41076 37.90000 595 ft 2 kts 314°
2026-05-01 10:43 55.41069 37.90023 595 ft 2 kts 282°
2026-05-01 10:43 55.41069 37.90049 595 ft 2 kts 254°
2026-05-01 10:43 55.41073 37.90066 595 ft 0 kts 236°
2026-05-01 10:44 55.41074 37.90070 595 ft 0 kts 235°
2026-05-01 10:48 55.41073 37.90066 595 ft 0 kts 235°
2026-05-01 10:48 55.41071 37.90062 595 ft 0 kts 235°
2026-05-01 10:49 55.41061 37.90036 595 ft 4 kts 235°
2026-05-01 10:49 55.41035 37.89969 595 ft 8 kts 235°
2026-05-01 10:49 55.40993 37.89864 595 ft 12 kts 234°
2026-05-01 10:49 55.40944 37.89738 595 ft 12 kts 234°
2026-05-01 10:50 55.40885 37.89599 595 ft 15 kts 229°
2026-05-01 10:50 55.40813 37.89440 595 ft 17 kts 235°
2026-05-01 10:50 55.40730 37.89276 595 ft 16 kts 195°
2026-05-01 10:50 55.40636 37.89350 595 ft 14 kts 143°
2026-05-01 10:51 55.40549 37.89453 595 ft 15 kts 147°
2026-05-01 10:51 55.40456 37.89560 595 ft 16 kts 148°
2026-05-01 10:51 55.40385 37.89540 595 ft 10 kts 270°
2026-05-01 10:51 55.40400 37.89446 595 ft 0 kts 292°
2026-05-01 10:52 55.40407 37.89419 595 ft 19 kts 294°
2026-05-01 10:52 55.40682 37.88935 596 ft 93 kts 325°
2026-05-01 10:52 55.41406 37.88056 596 ft 156 kts 322°
2026-05-01 10:52 55.42392 37.86889 956 ft 179 kts 324°
2026-05-01 10:53 55.43467 37.85649 1459 ft 198 kts 325°
2026-05-01 10:53 55.44704 37.84445 2102 ft 206 kts 341°
2026-05-01 10:53 55.46135 37.84459 2793 ft 215 kts 15°
2026-05-01 10:53 55.47518 37.85344 3580 ft 215 kts 12°
2026-05-01 10:54 55.48974 37.85259 4269 ft 213 kts 338°
2026-05-01 10:54 55.50317 37.84266 5060 ft 210 kts 334°
2026-05-01 10:54 55.51664 37.83355 5843 ft 209 kts 339°
2026-05-01 10:54 55.53047 37.82626 6612 ft 208 kts 342°
2026-05-01 10:55 55.54427 37.82025 7346 ft 207 kts 344°
2026-05-01 10:55 55.55830 37.81557 8034 ft 209 kts 355°
2026-05-01 10:55 55.57261 37.82097 8679 ft 214 kts 18°
2026-05-01 10:55 55.58622 37.83071 9377 ft 212 kts 19°
2026-05-01 10:56 55.59969 37.83983 10033 ft 210 kts 16°
2026-05-01 10:56 55.61348 37.84820 10679 ft 209 kts 14°
2026-05-01 10:56 55.62817 37.85636 10592 ft 246 kts 13°
2026-05-01 10:56 55.64465 37.86981 10608 ft 277 kts 34°
2026-05-01 10:57 55.65788 37.89777 10603 ft 318 kts 62°
2026-05-01 10:57 55.66442 37.93738 10609 ft 358 kts 84°
2026-05-01 10:57 55.66163 37.98063 11187 ft 354 kts 108°
2026-05-01 10:57 55.65030 38.01992 11717 ft 368 kts 124°
2026-05-01 10:58 55.63623 38.05808 12183 ft 363 kts 119°
2026-05-01 10:58 55.62518 38.09815 12621 ft 369 kts 111°
2026-05-01 10:58 55.61674 38.14118 13100 ft 369 kts 105°
2026-05-01 10:58 55.60999 38.18486 13593 ft 373 kts 103°
2026-05-01 10:59 55.60389 38.22987 14160 ft 375 kts 102°
2026-05-01 10:59 55.59809 38.27469 14723 ft 379 kts 101°
2026-05-01 10:59 55.59222 38.32050 15306 ft 382 kts 101°
2026-05-01 10:59 55.58636 38.36626 15892 ft 386 kts 101°
2026-05-01 11:00 55.58038 38.41260 16493 ft 389 kts 100°
2026-05-01 11:00 55.57848 38.46009 17080 ft 389 kts 81°
2026-05-01 11:00 55.58546 38.50572 17678 ft 387 kts 61°
2026-05-01 11:00 55.59962 38.54565 18323 ft 386 kts 51°
2026-05-01 11:01 55.61530 38.58402 18981 ft 390 kts 51°
2026-05-01 11:01 55.63045 38.62374 19662 ft 394 kts 53°
2026-05-01 11:01 55.64517 38.66522 20342 ft 399 kts 56°
2026-05-01 11:01 55.65960 38.70781 20964 ft 405 kts 57°
2026-05-01 11:02 55.67389 38.75089 21595 ft 407 kts 57°
2026-05-01 11:02 55.68810 38.79407 22224 ft 409 kts 57°
2026-05-01 11:02 55.70246 38.83781 22866 ft 413 kts 57°
2026-05-01 11:02 55.71670 38.88125 23516 ft 416 kts 57°
2026-05-01 11:03 55.73139 38.92611 24197 ft 419 kts 56°
2026-05-01 11:03 55.74813 38.96721 24865 ft 415 kts 44°
2026-05-01 11:03 55.76834 39.00378 25590 ft 414 kts 41°
2026-05-01 11:03 55.78870 39.03949 26287 ft 415 kts 41°
2026-05-01 11:04 55.80906 39.07618 26992 ft 416 kts 42°
2026-05-01 11:04 55.82884 39.11276 27677 ft 415 kts 43°
2026-05-01 11:04 55.84859 39.14981 28351 ft 415 kts 43°
2026-05-01 11:04 55.86818 39.18697 29007 ft 415 kts 43°
2026-05-01 11:05 55.88789 39.22463 29649 ft 414 kts 43°
2026-05-01 11:05 55.90746 39.26212 30266 ft 413 kts 43°
2026-05-01 11:05 55.92687 39.29934 30864 ft 412 kts 43°
2026-05-01 11:05 55.94668 39.33575 31174 ft 419 kts 40°
2026-05-01 11:06 55.96868 39.37174 31018 ft 435 kts 38°
2026-05-01 11:06 55.99150 39.40842 31070 ft 448 kts 39°
2026-05-01 11:06 56.01456 39.44606 31052 ft 459 kts 39°
2026-05-01 11:07 56.06099 39.52335 31043 ft 447 kts 39°
2026-05-01 11:07 56.08363 39.56134 31051 ft 450 kts 40°
2026-05-01 11:07 56.10358 39.60328 31044 ft 459 kts 53°
2026-05-01 11:07 56.11955 39.65312 31069 ft 460 kts 58°
2026-05-01 11:08 56.15126 39.75282 31057 ft 459 kts 55°
2026-05-01 11:09 56.20204 39.89840 31050 ft 459 kts 54°
2026-05-01 11:09 56.23607 39.99439 31046 ft 458 kts 54°
2026-05-01 11:10 56.28731 40.13953 31052 ft 459 kts 54°
2026-05-01 11:10 56.32126 40.23621 31052 ft 459 kts 54°
2026-05-01 11:11 56.35510 40.33293 31050 ft 458 kts 54°
2026-05-01 11:11 56.38887 40.42985 31049 ft 458 kts 54°
2026-05-01 11:12 56.42281 40.52764 31050 ft 459 kts 54°
2026-05-01 11:12 56.45649 40.62515 31050 ft 458 kts 54°
2026-05-01 11:13 56.46974 40.67735 31036 ft 466 kts 69°
2026-05-01 11:13 56.47804 40.73486 31072 ft 470 kts 73°
2026-05-01 11:13 56.49318 40.84884 31057 ft 466 kts 72°
2026-05-01 11:14 56.50962 40.96256 31050 ft 466 kts 71°
2026-05-01 11:14 56.52629 41.07531 31050 ft 464 kts 71°
2026-05-01 11:15 56.54294 41.18813 31047 ft 465 kts 71°
2026-05-01 11:15 56.55950 41.30109 31050 ft 465 kts 71°
2026-05-01 11:16 56.57596 41.41422 31054 ft 464 kts 71°
2026-05-01 11:16 56.59229 41.52725 31050 ft 465 kts 71°
2026-05-01 11:17 56.60847 41.64003 31049 ft 464 kts 71°
2026-05-01 11:17 56.62441 41.75229 31054 ft 466 kts 71°
2026-05-01 11:18 56.64054 41.86659 31049 ft 464 kts 71°
2026-05-01 11:18 56.65640 41.97961 31054 ft 465 kts 71°
2026-05-01 11:19 56.67233 42.09395 31050 ft 464 kts 71°
2026-05-01 11:19 56.68799 42.20715 31051 ft 466 kts 71°
2026-05-01 11:20 56.70370 42.32159 31017 ft 465 kts 71°
2026-05-01 11:20 56.71918 42.43525 30975 ft 465 kts 71°
2026-05-01 11:21 56.73461 42.54940 30968 ft 465 kts 71°
2026-05-01 11:21 56.75227 42.66286 30952 ft 464 kts 69°
2026-05-01 11:22 56.77104 42.77451 30959 ft 464 kts 69°
2026-05-01 11:22 56.78944 42.88715 30963 ft 464 kts 69°
2026-05-01 11:23 56.80756 42.99956 30966 ft 463 kts 69°
2026-05-01 11:23 56.82555 43.11203 30967 ft 461 kts 70°
2026-05-01 11:24 56.84336 43.22410 30966 ft 458 kts 70°
2026-05-01 11:25 56.86968 43.39093 30962 ft 457 kts 70°
2026-05-01 11:25 56.89583 43.55846 30960 ft 458 kts 70°
2026-05-01 11:26 56.92190 43.72735 30965 ft 458 kts 70°
2026-05-01 11:27 56.93897 43.83900 30965 ft 458 kts 70°
2026-05-01 11:27 56.95604 43.95127 30964 ft 458 kts 70°
2026-05-01 11:28 56.97313 44.06426 30960 ft 458 kts 70°
2026-05-01 11:28 56.98999 44.17657 30964 ft 460 kts 70°
2026-05-01 11:29 57.01521 44.34593 30964 ft 459 kts 71°
2026-05-01 11:30 57.04007 44.51469 30961 ft 460 kts 71°
2026-05-01 11:30 57.05664 44.62826 30959 ft 460 kts 71°
2026-05-01 11:31 57.07303 44.74156 30968 ft 459 kts 72°
2026-05-01 11:31 57.08931 44.85486 30964 ft 460 kts 71°
2026-05-01 11:32 57.10565 44.96886 30955 ft 461 kts 72°
2026-05-01 11:32 57.12206 45.08253 30961 ft 459 kts 72°
2026-05-01 11:33 57.13808 45.19558 30960 ft 459 kts 72°
2026-05-01 11:33 57.15407 45.30986 30963 ft 460 kts 72°
2026-05-01 11:34 57.16983 45.42345 30964 ft 459 kts 72°
2026-05-01 11:34 57.18549 45.53705 30965 ft 458 kts 72°
2026-05-01 11:35 57.20112 45.65130 30963 ft 459 kts 73°
2026-05-01 11:35 57.21650 45.76495 30963 ft 460 kts 73°
2026-05-01 11:36 57.23187 45.87917 30960 ft 459 kts 73°
2026-05-01 11:36 57.24714 45.99337 30957 ft 459 kts 73°
2026-05-01 11:37 57.26234 46.10797 30965 ft 460 kts 73°
2026-05-01 11:37 57.27742 46.22248 30961 ft 459 kts 73°
2026-05-01 11:38 57.29243 46.33732 30960 ft 459 kts 73°
2026-05-01 11:38 57.30730 46.45204 30963 ft 460 kts 73°
2026-05-01 11:39 57.32203 46.56660 30961 ft 460 kts 73°
2026-05-01 11:39 57.33665 46.68116 30941 ft 460 kts 74°
2026-05-01 11:40 57.35151 46.79622 30959 ft 458 kts 69°
2026-05-01 11:40 57.37803 46.90299 30955 ft 456 kts 61°
2026-05-01 11:41 57.40522 47.00800 30963 ft 456 kts 63°
2026-05-01 11:41 57.43154 47.11534 30963 ft 456 kts 64°
2026-05-01 11:42 57.45729 47.22220 30965 ft 455 kts 64°
2026-05-01 11:42 57.48307 47.32984 30964 ft 456 kts 64°
2026-05-01 11:43 57.50883 47.43794 30963 ft 456 kts 64°
2026-05-01 11:43 57.53440 47.54539 30964 ft 456 kts 63°
2026-05-01 11:44 57.57272 47.70767 30956 ft 456 kts 64°
2026-05-01 11:44 57.59789 47.81510 30963 ft 456 kts 64°
2026-05-01 11:45 57.62323 47.92362 30961 ft 456 kts 64°
2026-05-01 11:45 57.64853 48.03247 30962 ft 456 kts 64°
2026-05-01 11:46 57.67365 48.14105 30962 ft 456 kts 64°
2026-05-01 11:46 57.69866 48.24974 30960 ft 456 kts 64°
2026-05-01 11:47 57.72347 48.35810 30961 ft 456 kts 64°
2026-05-01 11:47 57.74826 48.46743 30963 ft 456 kts 66°
2026-05-01 11:48 57.75586 48.52537 30978 ft 460 kts 79°
2026-05-01 11:48 57.75948 48.58484 30960 ft 463 kts 81°
2026-05-01 11:48 57.76633 48.70404 30953 ft 461 kts 81°
2026-05-01 11:49 57.77431 48.82364 30959 ft 461 kts 81°
2026-05-01 11:49 57.78246 48.94175 30961 ft 461 kts 80°
2026-05-01 11:50 57.79062 49.06076 30963 ft 461 kts 81°
2026-05-01 11:50 57.79869 49.18009 30963 ft 461 kts 81°
2026-05-01 11:51 57.80527 49.27875 30964 ft 462 kts 81°
2026-05-01 11:51 57.81112 49.36746 30965 ft 461 kts 81°
2026-05-01 11:52 57.81419 49.41443 30963 ft 461 kts 81°
2026-05-01 11:52 57.82214 49.53717 30963 ft 461 kts 81°
2026-05-01 11:53 57.82983 49.65779 30963 ft 461 kts 82°
2026-05-01 11:53 57.83722 49.77587 30966 ft 462 kts 82°
2026-05-01 11:54 57.84444 49.89288 30966 ft 461 kts 82°
2026-05-01 11:54 57.85184 50.01454 30964 ft 462 kts 82°
2026-05-01 11:55 57.85909 50.13499 30965 ft 461 kts 82°
2026-05-01 11:55 57.86621 50.25437 30965 ft 461 kts 82°
2026-05-01 11:56 57.87323 50.37423 30965 ft 461 kts 82°
2026-05-01 11:56 57.88014 50.49429 30963 ft 462 kts 82°
2026-05-01 11:57 57.88620 50.60115 30964 ft 462 kts 82°